FABIEND Weather Reports


time (UTC)temp
C
wind
direction
speed
KPH
gust
KPH
rain 1hr
cm
rain 24hr
cm
rain mn
cm
humidity
%
barometer
mb
20260507051502 7 159 0.0 0.0 0.00 0.33 0.23 96 1013.3
20260507050111 6 159 0.0 0.0 0.00 0.33 0.23 95 1013.1
20260507044600 6 159 0.0 0.0 0.00 1.30 0.23 95 1013.0
20260507043058 6 159 0.0 0.0 0.00 1.30 0.23 95 1012.9
20260507041557 6 159 0.0 0.0 0.00 1.30 0.23 95 1013.0
20260507040103 6 159 0.0 0.0 0.00 1.30 0.23 94 1012.9
20260507034559 6 159 0.0 3.2 0.00 1.42 0.23 95 1013.0
20260507033053 7 159 1.6 4.8 0.00 1.42 0.23 94 1012.9
20260507031555 7 159 0.0 4.8 0.00 1.42 0.23 95 1012.9
20260507030051 7 166 1.6 4.8 0.00 1.42 0.23 95 1012.8
20260507024550 7 166 0.0 0.0 0.00 1.70 0.23 94 1012.9
20260507023050 7 166 0.0 3.2 0.00 1.70 0.23 94 1012.8
20260507021558 7 217 0.0 3.2 0.00 1.70 0.23 95 1012.9
20260507020049 7 215 1.6 4.8 0.00 1.70 0.23 93 1012.8
20260507014548 7 215 1.6 3.2 0.00 1.78 0.23 94 1012.8
20260507013048 7 215 3.2 6.4 0.00 1.78 0.23 94 1012.7
20260507011549 7 163 0.0 4.8 0.00 1.78 0.23 93 1012.6
20260507010045 7 163 0.0 3.2 0.00 1.78 0.23 93 1012.5
20260507004540 7 163 1.6 4.8 0.00 2.21 0.23 93 1012.5
20260507003038 8 163 0.0 3.2 0.00 2.21 0.23 93 1012.5
20260507001537 8 163 1.6 8.0 0.00 2.21 0.23 93 1012.5
20260507000037 8 241 0.0 4.8 0.00 2.21 0.23 92 1012.6
20260506234538 8 225 3.2 6.4 0.00 2.31 0.23 92 1012.6
20260506233031 9 180 0.0 3.2 0.05 2.31 0.23 92 1012.6
20260506231529 10 247 0.0 4.8 0.08 2.31 0.23 91 1012.6
20260506230026 10 213 0.0 6.4 0.23 2.31 0.23 92 1012.5
20260506224526 10 169 1.6 4.8 0.28 2.31 0.20 93 1012.6
20260506223023 10 169 3.2 6.4 0.25 2.29 0.18 92 1012.9
20260506221522 10 213 0.0 4.8 0.20 2.21 0.13 90 1013.0
20260506220025 11 231 3.2 8.0 0.08 2.11 0.00 87 1012.8
20260506214516 11 194 1.6 4.8 0.00 2.06 2.03 91 1012.6
20260506213018 10 165 0.0 4.8 0.00 2.06 2.03 92 1012.4
20260506211512 10 142 0.0 4.8 0.00 2.06 2.03 91 1012.1
20260506210009 10 142 0.0 4.8 0.00 2.06 2.03 92 1011.8
20260506204509 10 142 1.6 4.8 0.00 2.06 2.03 91 1011.7
20260506203019 10 142 0.0 3.2 0.00 2.06 2.03 92 1011.6
20260506201510 10 142 1.6 4.8 0.00 2.06 2.03 91 1011.7
20260506200006 10 142 0.0 4.8 0.00 2.08 2.03 92 1011.6
20260506194502 10 142 0.0 3.2 0.00 2.08 2.03 91 1011.4
20260506193103 11 159 0.0 6.4 0.00 2.08 2.03 91 1011.1
20260506191504 11 218 0.0 0.0 0.00 2.08 2.03 91 1010.9
20260506184611 12 217 3.2 6.4 0.00 2.08 2.03 89 1010.3
20260506183002 12 14 0.0 0.0 0.00 2.08 2.03 88 1010.4
20260506181602 12 14 0.0 1.6 0.00 2.08 2.03 88 1010.2
20260506180006 12 14 0.0 8.0 0.00 2.08 2.03 87 1010.0
20260506174502 13 25 1.6 8.0 0.00 2.08 2.03 86 1010.0
20260506173116 13 273 1.6 4.8 0.00 2.08 2.03 85 1009.7
20260506171507 13 273 3.2 4.8 0.00 2.08 2.03 85 1009.6
20260506170103 13 273 3.2 6.4 0.00 2.08 2.03 85 1009.6
20260506164603 13 5 0.0 3.2 0.00 2.18 2.03 85 1009.6
20260506163002 13 247 1.6 6.4 0.00 2.18 2.03 83 1009.5
20260506161607 13 324 1.6 8.0 0.00 2.18 2.03 78 1009.4
20260506160002 13 25 4.8 11.3 0.00 2.36 2.03 80 1009.7
20260506154503 13 45 6.4 14.5 0.00 2.36 2.03 78 1009.9
20260506153103 15 16 8.0 16.1 0.00 2.36 2.03 76 1009.9
20260506151503 15 234 3.2 9.7 0.00 2.36 2.03 66 1009.8
20260506150108 16 17 1.6 11.3 0.00 2.36 2.03 69 1009.9
20260506144624 16 69 3.2 11.3 0.00 2.69 2.03 68 1009.9
20260506143012 16 5 6.4 14.5 0.00 2.69 2.03 65 1010.0
20260506141602 16 71 1.6 11.3 0.00 2.69 2.03 66 1010.0
20260506140007 16 28 4.8 11.3 0.00 2.69 2.03 63 1010.0
20260506134504 16 71 3.2 14.5 0.00 2.69 2.03 64 1010.1
20260506133102 16 199 1.6 8.0 0.00 2.69 2.03 68 1010.1
20260506131503 16 355 3.2 9.7 0.00 2.69 2.03 68 1010.1
20260506130140 -17 46 0.0 3.2 0.00 2.69 2.03 1010.0
20260506124604 -17 113 0.0 1.6 0.00 2.69 2.03 1010.1
20260506123003 -17 182 0.0 4.8 0.00 2.69 2.03 1010.4
20260506121604 -17 216 0.0 4.8 0.00 2.69 2.03 1010.5
20260506120003 -17 5 0.0 8.0 0.00 2.69 2.03 1010.5
20260506114502 -17 22 4.8 8.0 0.00 2.69 2.03 1010.3
20260506113108 -17 306 0.0 11.3 0.00 2.69 2.03 1010.4
20260506111502 -17 98 8.0 14.5 0.00 2.69 2.03 1010.2
20260506110105 -17 290 3.2 9.7 0.00 2.69 2.03 1010.4
20260506104541 -17 15 0.0 8.0 0.00 2.69 2.03 1010.5
20260506103037 -17 52 6.4 11.3 0.00 2.69 2.03 1010.6
20260506101547 -17 37 1.6 6.4 0.00 2.69 2.03 1010.7
20260506100031 13 206 0.0 6.4 0.00 2.69 2.03 78 1010.7
20260506094529 13 81 1.6 8.0 0.00 2.69 2.03 77 1010.7
20260506093024 12 61 0.0 6.4 0.00 2.69 2.03 80 1010.5
20260506091524 12 114 0.0 4.8 0.00 2.69 2.03 84 1010.4
20260506090021 12 94 0.0 8.0 0.00 2.69 2.03 88 1010.4
20260506084520 11 152 0.0 0.0 0.05 2.69 2.03 90 1010.3
20260506083014 11 152 0.0 3.2 0.05 2.69 2.03 92 1010.2
20260506081512 11 152 1.6 4.8 0.05 2.69 2.03 93 1010.0
20260506073100 10 180 1.6 6.4 0.00 3.25 1.98 93 1009.4
20260506071608 10 170 3.2 6.4 0.00 3.25 1.98 94 1009.2
20260506061550 10 228 3.2 8.0 0.00 3.94 1.98 94 1008.5